LOT7004 EPBY-EPWA

Flight info

Callsign LOT7004
Flight time 0h 35m
Altitude 31000
Route INTUN DCT NASOK DCT SORIX
Aircraft B738/M-SDE2E3FGHIRWXY/LB1

Departure

Time 2026-05-04 19:31
Airport Ignacy Jan Paderewski Bydgoszcz Airport (EPBY)

Arrival

Time 2026-05-04 20:07
Airport Warsaw Chopin Airport (EPWA)
Time Latitude Longitude Altitude Speed Heading
2026-05-04 18:56 53.09455 17.99626 240 ft 0 kts 175°
2026-05-04 19:22 53.09468 17.99625 240 ft 2 kts 194°
2026-05-04 19:23 53.09482 17.99635 239 ft 2 kts 213°
2026-05-04 19:23 53.09494 17.99651 239 ft 2 kts 221°
2026-05-04 19:23 53.09506 17.99666 238 ft 2 kts 217°
2026-05-04 19:23 53.09519 17.99676 238 ft 2 kts 188°
2026-05-04 19:24 53.09534 17.99676 237 ft 1 kts 168°
2026-05-04 19:24 53.09544 17.99673 237 ft 2 kts 165°
2026-05-04 19:24 53.09557 17.99661 236 ft 2 kts 140°
2026-05-04 19:24 53.09567 17.99643 236 ft 2 kts 121°
2026-05-04 19:25 53.09573 17.99621 236 ft 2 kts 101°
2026-05-04 19:25 53.09573 17.99601 236 ft 0 kts 84°
2026-05-04 19:25 53.09573 17.99590 236 ft 1 kts 81°
2026-05-04 19:25 53.09573 17.99589 236 ft 0 kts 81°
2026-05-04 19:27 53.09573 17.99590 236 ft 1 kts 81°
2026-05-04 19:28 53.09641 17.99652 233 ft 16 kts 352°
2026-05-04 19:28 53.09676 17.99643 232 ft 0 kts 352°
2026-05-04 19:30 53.09701 17.99637 231 ft 14 kts 352°
2026-05-04 19:30 53.09826 17.99576 229 ft 12 kts 299°
2026-05-04 19:30 53.09819 17.99427 229 ft 31 kts 262°
2026-05-04 19:30 53.09748 17.98582 229 ft 112 kts 262°
2026-05-04 19:31 53.09620 17.97017 481 ft 150 kts 264°
2026-05-04 19:31 53.09476 17.95309 1230 ft 153 kts 264°
2026-05-04 19:31 53.09317 17.93560 1864 ft 166 kts 265°
2026-05-04 19:31 53.09154 17.91556 2495 ft 186 kts 264°
2026-05-04 19:32 53.08963 17.89330 3151 ft 205 kts 262°
2026-05-04 19:32 53.08443 17.87048 3871 ft 225 kts 237°
2026-05-04 19:32 53.07371 17.85251 4855 ft 232 kts 218°
2026-05-04 19:32 53.05906 17.84183 5854 ft 242 kts 193°
2026-05-04 19:33 53.04205 17.84307 6858 ft 254 kts 173°
2026-05-04 19:33 53.02584 17.85512 7855 ft 267 kts 147°
2026-05-04 19:33 53.01258 17.87636 8831 ft 277 kts 133°
2026-05-04 19:33 53.00321 17.90588 9574 ft 302 kts 107°
2026-05-04 19:34 53.00246 17.94124 10353 ft 320 kts 82°
2026-05-04 19:34 53.00874 17.97791 10852 ft 345 kts 71°
2026-05-04 19:34 53.01387 18.01800 10772 ft 369 kts 89°
2026-05-04 19:34 53.00996 18.05921 10711 ft 361 kts 109°
2026-05-04 19:35 53.00116 18.09943 11280 ft 374 kts 112°
2026-05-04 19:35 52.99247 18.13949 12471 ft 377 kts 111°
2026-05-04 19:35 52.98441 18.18035 13703 ft 378 kts 110°
2026-05-04 19:35 52.97679 18.22180 14873 ft 382 kts 109°
2026-05-04 19:36 52.96928 18.26432 15982 ft 387 kts 108°
2026-05-04 19:36 52.96189 18.30710 17020 ft 393 kts 108°
2026-05-04 19:36 52.95442 18.35081 17998 ft 399 kts 107°
2026-05-04 19:36 52.94683 18.39532 18989 ft 405 kts 108°
2026-05-04 19:37 52.93916 18.44036 19915 ft 411 kts 107°
2026-05-04 19:37 52.93137 18.48597 20783 ft 417 kts 107°
2026-05-04 19:37 52.92341 18.53171 21651 ft 421 kts 109°
2026-05-04 19:37 52.91324 18.57773 22506 ft 425 kts 114°
2026-05-04 19:38 52.90165 18.62323 22912 ft 432 kts 115°
2026-05-04 19:38 52.88976 18.66867 22940 ft 430 kts 116°
2026-05-04 19:38 52.87804 18.71366 22927 ft 425 kts 116°
2026-05-04 19:38 52.86649 18.75852 22928 ft 425 kts 116°
2026-05-04 19:39 52.85504 18.80326 22927 ft 427 kts 115°
2026-05-04 19:39 52.84360 18.84820 22927 ft 428 kts 115°
2026-05-04 19:39 52.83215 18.89341 22927 ft 427 kts 115°
2026-05-04 19:39 52.82075 18.93848 22927 ft 427 kts 115°
2026-05-04 19:40 52.80918 18.98423 22927 ft 428 kts 115°
2026-05-04 19:40 52.79771 19.02963 22927 ft 428 kts 115°
2026-05-04 19:40 52.78645 19.07413 22928 ft 427 kts 115°
2026-05-04 19:40 52.77506 19.11914 22928 ft 426 kts 115°
2026-05-04 19:41 52.76358 19.16441 22925 ft 426 kts 115°
2026-05-04 19:41 52.75228 19.20891 22929 ft 426 kts 115°
2026-05-04 19:41 52.74081 19.25399 22931 ft 425 kts 115°
2026-05-04 19:41 52.72942 19.29869 22928 ft 426 kts 115°
2026-05-04 19:42 52.71793 19.34370 22927 ft 426 kts 115°
2026-05-04 19:42 52.70644 19.38862 22926 ft 425 kts 115°
2026-05-04 19:42 52.69498 19.43331 22927 ft 426 kts 115°
2026-05-04 19:42 52.68342 19.47835 22926 ft 425 kts 115°
2026-05-04 19:43 52.67193 19.52302 22925 ft 423 kts 115°
2026-05-04 19:43 52.66040 19.56773 22927 ft 423 kts 115°
2026-05-04 19:43 52.64899 19.61191 22927 ft 422 kts 115°
2026-05-04 19:43 52.63748 19.65636 22925 ft 423 kts 115°
2026-05-04 19:44 52.62592 19.70093 22927 ft 422 kts 115°
2026-05-04 19:44 52.61447 19.74499 22927 ft 422 kts 115°
2026-05-04 19:44 52.60290 19.78943 22929 ft 422 kts 115°
2026-05-04 19:44 52.59131 19.83388 22926 ft 422 kts 115°
2026-05-04 19:45 52.57980 19.87787 22927 ft 422 kts 115°
2026-05-04 19:45 52.56811 19.92250 22927 ft 422 kts 115°
2026-05-04 19:45 52.55656 19.96654 22929 ft 423 kts 115°
2026-05-04 19:45 52.54494 20.01074 22930 ft 425 kts 115°
2026-05-04 19:46 52.53326 20.05506 22772 ft 422 kts 115°
2026-05-04 19:46 52.52158 20.09936 22197 ft 420 kts 115°
2026-05-04 19:46 52.50994 20.14335 21546 ft 421 kts 115°
2026-05-04 19:46 52.49848 20.18663 20945 ft 414 kts 115°
2026-05-04 19:47 52.48705 20.22974 20293 ft 408 kts 115°
2026-05-04 19:47 52.47589 20.27171 19637 ft 403 kts 115°
2026-05-04 19:47 52.46476 20.31349 19006 ft 397 kts 115°
2026-05-04 19:47 52.45382 20.35451 18341 ft 392 kts 115°
2026-05-04 19:48 52.44287 20.39549 17737 ft 394 kts 115°
2026-05-04 19:48 52.43195 20.43626 17067 ft 394 kts 115°
2026-05-04 19:48 52.42104 20.47693 16426 ft 389 kts 115°
2026-05-04 19:48 52.41017 20.51741 15757 ft 384 kts 116°
2026-05-04 19:49 52.39959 20.55672 15151 ft 379 kts 116°
2026-05-04 19:49 52.38899 20.59604 14512 ft 375 kts 116°
2026-05-04 19:49 52.37848 20.63491 13894 ft 378 kts 116°
2026-05-04 19:49 52.36797 20.67366 13263 ft 377 kts 117°
2026-05-04 19:50 52.35746 20.71248 12623 ft 372 kts 117°
2026-05-04 19:50 52.34714 20.75050 11996 ft 368 kts 117°
2026-05-04 19:50 52.33727 20.78681 11400 ft 364 kts 117°
2026-05-04 19:50 52.32809 20.82048 10881 ft 359 kts 117°
2026-05-04 19:51 52.31881 20.85456 10548 ft 348 kts 117°
2026-05-04 19:51 52.30893 20.89081 10381 ft 331 kts 117°
2026-05-04 19:51 52.30001 20.92352 10266 ft 315 kts 118°
2026-05-04 19:51 52.29130 20.95533 10135 ft 302 kts 118°
2026-05-04 19:52 52.28286 20.98607 9864 ft 295 kts 118°
2026-05-04 19:52 52.27387 21.01563 9448 ft 290 kts 127°
2026-05-04 19:52 52.26039 21.03828 9085 ft 277 kts 152°
2026-05-04 19:52 52.24382 21.05283 8754 ft 270 kts 158°
2026-05-04 19:53 52.22704 21.06697 8398 ft 268 kts 157°
2026-05-04 19:53 52.21071 21.08095 8103 ft 263 kts 156°
2026-05-04 19:53 52.19463 21.09477 8004 ft 268 kts 156°
2026-05-04 19:53 52.17867 21.10848 7852 ft 270 kts 156°
2026-05-04 19:54 52.16220 21.12269 7704 ft 258 kts 156°
2026-05-04 19:54 52.14678 21.13607 7576 ft 248 kts 156°
2026-05-04 19:54 52.13149 21.14945 7286 ft 246 kts 156°
2026-05-04 19:54 52.11662 21.16247 6993 ft 244 kts 156°
2026-05-04 19:55 52.10169 21.17554 6724 ft 242 kts 155°
2026-05-04 19:55 52.08725 21.18816 6448 ft 241 kts 155°
2026-05-04 19:55 52.07295 21.20065 6174 ft 240 kts 155°
2026-05-04 19:55 52.05821 21.21352 5901 ft 240 kts 155°
2026-05-04 19:56 52.04353 21.22633 5621 ft 240 kts 155°
2026-05-04 19:56 52.02888 21.23910 5342 ft 239 kts 155°
2026-05-04 19:56 52.01423 21.25186 5067 ft 239 kts 155°
2026-05-04 19:56 51.99947 21.26465 4973 ft 236 kts 155°
2026-05-04 19:57 51.98494 21.27716 4987 ft 240 kts 155°
2026-05-04 19:57 51.96998 21.29002 4985 ft 241 kts 155°
2026-05-04 19:57 51.95525 21.30270 4987 ft 241 kts 155°
2026-05-04 19:57 51.94040 21.31543 4987 ft 240 kts 156°
2026-05-04 19:58 51.92498 21.32232 4982 ft 218 kts 187°
2026-05-04 19:58 51.91205 21.31471 4934 ft 197 kts 216°
2026-05-04 19:58 51.90192 21.30048 4761 ft 189 kts 230°
2026-05-04 19:58 51.89406 21.28355 4546 ft 185 kts 241°
2026-05-04 19:59 51.88998 21.26434 4340 ft 181 kts 261°
2026-05-04 19:59 51.88990 21.24415 4135 ft 180 kts 276°
2026-05-04 19:59 51.89371 21.22499 3951 ft 179 kts 294°
2026-05-04 19:59 51.90109 21.20853 3877 ft 182 kts 311°
2026-05-04 20:00 51.91138 21.19629 3832 ft 187 kts 325°
2026-05-04 20:00 51.92266 21.18576 3777 ft 187 kts 325°
2026-05-04 20:00 51.93230 21.17598 3723 ft 186 kts 321°
2026-05-04 20:00 51.94335 21.16283 3663 ft 184 kts 319°
2026-05-04 20:01 51.95417 21.15127 3598 ft 185 kts 324°
2026-05-04 20:01 51.96523 21.14104 3541 ft 185 kts 326°
2026-05-04 20:01 51.97648 21.13114 3503 ft 183 kts 327°
2026-05-04 20:01 51.98758 21.12150 3442 ft 183 kts 327°
2026-05-04 20:02 51.99897 21.11166 3374 ft 184 kts 327°
2026-05-04 20:02 52.01024 21.10192 3300 ft 184 kts 327°
2026-05-04 20:02 52.02153 21.09217 3182 ft 185 kts 327°
2026-05-04 20:02 52.03285 21.08238 3017 ft 184 kts 327°
2026-05-04 20:03 52.04395 21.07279 2795 ft 181 kts 327°
2026-05-04 20:03 52.05456 21.06364 2573 ft 165 kts 327°
2026-05-04 20:03 52.06414 21.05535 2372 ft 149 kts 327°
2026-05-04 20:03 52.07279 21.04785 2145 ft 137 kts 326°
2026-05-04 20:04 52.08080 21.04090 1981 ft 127 kts 326°
2026-05-04 20:04 52.08842 21.03427 1820 ft 123 kts 327°
2026-05-04 20:04 52.09588 21.02779 1663 ft 125 kts 327°
2026-05-04 20:04 52.10366 21.02106 1497 ft 128 kts 328°
2026-05-04 20:05 52.11137 21.01439 1323 ft 126 kts 327°
2026-05-04 20:05 52.11924 21.00755 1154 ft 131 kts 328°
2026-05-04 20:05 52.12710 21.00075 985 ft 129 kts 328°
2026-05-04 20:05 52.13502 20.99387 808 ft 129 kts 329°
2026-05-04 20:06 52.14278 20.98718 628 ft 128 kts 329°
2026-05-04 20:06 52.15064 20.98031 468 ft 131 kts 330°
2026-05-04 20:06 52.15842 20.97355 346 ft 125 kts 330°
2026-05-04 20:06 52.16530 20.96751 333 ft 89 kts 332°
2026-05-04 20:07 52.16874 20.96452 331 ft 28 kts 332°
2026-05-04 20:07 52.17031 20.96317 334 ft 23 kts 332°
2026-05-04 20:07 52.17177 20.96248 338 ft 21 kts 358°
2026-05-04 20:07 52.17330 20.96251 337 ft 18 kts
2026-05-04 20:08 52.17400 20.96305 336 ft 3 kts 60°
2026-05-04 20:08 52.17411 20.96339 335 ft 12 kts 61°
2026-05-04 20:08 52.17465 20.96516 333 ft 15 kts 78°
2026-05-04 20:08 52.17405 20.96617 334 ft 10 kts 193°
2026-05-04 20:09 52.17355 20.96561 333 ft 5 kts 209°
2026-05-04 20:09 52.17341 20.96548 333 ft 0 kts 206°